Probability
8 7 5 2 1 0 0 0 0 0 0 0 0 0 0 0 0 0 1 1 1 0 1 2 2 1 0 0 0 0 0 0 0 0 0 0 0 0 0 0 0 0 0 0 0 0 0 0 0
7 5 3 1 0 0 0 0 0 0 0 0 0 0 0 0 0 0 2 3 1 0 0 1 2 2 1 0 0 0 0 0 0 0 0 0 0 0 0 0 0 0 0 0 0 0 0 0 0
8 5 2 1 0 0 0 0 1 0 0 0 0 0 0 0 0 1 3 4 2 0 0 1 2 2 1 0 0 0 0 0 0 0 0 0 0 0 0 1 0 0 0 0 0 0 0 0 0
9 5 1 0 0 0 0 0 0 0 0 0 0 0 0 0 0 1 2 3 3 1 0 0 1 1 0 0 0 0 0 0 0 0 0 0 0 0 0 0 0 0 0 0 0 0 0 0 0
7 3 0 0 0 0 0 0 0 0 0 0 0 0 0 0 1 1 1 2 3 2 1 0 0 0 0 0 0 0 0 0 0 0 0 0 0 0 0 0 0 0 0 0 0 0 0 0 0
4 2 0 0 0 0 0 0 0 0 0 0 0 0 0 0 1 1 2 2 3 2 1 0 0 0 1 1 1 0 0 0 0 0 0 0 0 0 0 0 0 0 0 0 0 0 0 0 0
3 1 0 0 0 0 0 0 0 0 0 0 0 0 0 1 1 2 3 3 3 3 1 1 0 0 1 2 1 0 0 0 0 0 0 0 0 0 0 0 0 0 0 0 0 0 0 0 0
2 1 0 0 0 0 0 0 0 0 0 0 0 0 0 1 2 3 3 3 3 3 2 1 0 0 1 1 1 0 0 0 0 0 0 0 0 0 0 0 0 0 0 0 0 0 0 0 0
2 1 0 0 0 0 0 0 0 0 0 0 1 0 0 1 2 3 3 3 3 2 1 1 0 0 0 0 0 0 0 0 0 0 0 0 0 0 0 0 0 0 0 0 0 0 0 0 0
2 1 0 0 0 0 0 0 0 0 0 0 0 0 0 0 1 2 3 3 2 1 0 0 0 0 0 0 0 0 0 0 0 0 0 0 0 0 0 0 0 0 0 0 0 0 0 0 0
1 0 0 0 0 0 0 0 0 0 0 0 0 0 0 0 0 1 1 2 1 0 0 0 0 0 0 0 0 0 0 0 0 0 0 0 0 0 0 0 0 0 0 0 0 0 0 0 0
0 0 0 0 0 0 0 0 0 0 0 1 1 1 0 0 0 0 0 1 1 0 0 0 0 0 0 0 0 0 0 0 0 0 0 0 0 0 0 0 0 0 0 0 0 0 0 0 0
0 0 0 0 0 0 0 0 0 0 0 1 1 1 0 0 0 0 0 0 0 0 0 0 0 0 0 0 0 0 0 0 0 0 0 0 0 0 0 0 0 0 0 0 0 0 0 0 0
0 0 0 0 0 0 1 1 0 0 1 2 2 1 1 1 1 0 0 0 0 0 0 0 0 0 0 0 0 0 0 0 0 0 0 0 0 0 0 0 0 0 0 0 0 0 0 0 0
0 0 0 0 0 0 0 1 1 1 1 2 3 2 2 2 1 1 1 1 1 1 0 0 0 0 0 0 0 0 0 0 0 0 0 0 0 0 0 0 0 0 0 0 0 0 0 0 0
0 0 0 0 0 0 0 0 1 2 2 3 3 3 3 2 1 1 1 1 2 2 1 0 0 0 0 0 0 0 0 0 0 0 0 0 0 0 0 0 0 0 0 0 0 0 0 0 0
0 0 0 0 0 0 0 0 1 2 2 2 2 3 2 1 0 0 0 1 3 3 2 1 0 0 0 0 1 1 1 0 0 0 0 0 0 0 0 0 0 0 0 0 0 0 0 0 0
0 0 0 0 0 0 0 0 1 2 1 1 1 1 1 0 0 0 1 2 3 4 2 1 0 0 0 0 1 1 1 0 0 0 0 0 0 0 0 0 0 0 0 0 0 0 0 0 0
0 0 0 0 0 0 0 0 1 1 0 0 0 0 0 0 0 0 1 2 3 3 3 1 0 0 0 0 0 0 0 0 0 0 0 0 0 0 0 0 0 0 0 0 0 0 0 0 0
0 0 0 0 0 0 0 0 0 0 0 0 0 0 1 1 0 0 1 1 3 3 3 3 2 2 1 0 0 0 0 0 0 0 0 0 0 0 0 0 0 0 0 0 0 0 0 0 0
0 0 0 0 0 0 0 0 0 0 0 0 0 1 2 2 1 0 0 1 3 3 4 5 5 3 2 1 0 0 0 0 0 0 0 0 0 0 0 0 0 0 0 0 0 0 0 0 0
0 0 0 0 0 0 0 0 0 0 0 0 0 1 2 3 1 0 1 3 4 4 4 5 5 4 3 1 1 1 1 0 0 0 0 0 0 0 0 0 0 0 0 0 0 0 0 0 0
0 0 0 0 0 0 0 0 0 0 0 0 0 1 2 3 2 1 2 3 4 3 3 4 4 3 3 2 2 2 1 0 0 0 0 0 0 0 0 0 0 0 0 0 0 0 0 0 0
0 0 0 0 0 0 0 0 0 0 0 0 0 1 2 3 2 1 2 3 4 3 3 2 2 2 2 3 3 2 1 0 0 0 0 0 0 0 0 0 0 0 0 0 0 0 0 0 0
0 0 0 0 0 0 0 0 0 0 0 0 0 0 1 3 3 2 3 5 5 5 3 3 2 2 2 3 3 3 1 0 0 0 0 0 0 0 0 0 0 0 0 0 0 0 0 0 0
0 0 0 0 0 0 0 0 0 0 0 0 0 0 1 2 3 3 4 7 8 6 4 3 3 3 3 4 4 3 1 0 0 0 0 0 0 0 0 0 0 0 0 0 0 0 0 0 0
0 0 0 0 0 0 0 0 0 0 0 0 0 0 0 1 2 3 5 7 8 6 4 3 3 4 5 5 4 2 1 0 0 1 1 0 0 0 0 0 0 0 0 0 0 0 0 0 0
0 0 0 0 0 0 0 0 0 0 0 0 0 0 0 0 1 2 4 6 6 6 4 4 4 5 6 6 5 2 1 0 0 1 1 0 0 0 0 0 0 0 0 0 0 0 0 0 0
0 0 0 0 0 0 0 0 0 0 0 0 0 0 0 0 0 1 3 4 4 5 5 5 5 6 6 6 5 3 1 0 0 1 1 0 0 0 0 0 0 0 0 0 0 0 0 0 0
0 0 0 0 0 0 0 0 0 0 0 0 1 1 1 0 0 1 2 3 4 4 5 5 6 6 6 6 6 3 1 0 0 0 0 0 0 0 0 0 0 0 0 0 0 0 0 0 0
Wind_Speed
8 9 6 2 2 1 3 5 7 8 8 9 10 10 13 13 10 9 3 7 10 11 11 11 13 14 14 14 13 14 14 14 14 13 13 13 12 12 12 12 12 12 12 12 12 12 11 11 10
9 5 3 2 2 1 4 7 9 9 7 7 9 12 13 13 11 8 4 7 10 11 11 11 13 14 14 14 13 13 14 14 13 13 13 12 12 12 11 12 12 11 11 12 12 12 11 10 9
11 6 3 2 1 3 6 8 9 8 6 6 9 11 10 8 8 6 6 8 12 12 11 11 14 14 14 14 13 13 13 13 12 12 12 12 12 12 11 11 11 11 11 11 11 11 11 10 9
5 3 2 1 6 8 9 9 8 8 7 8 9 10 10 8 7 8 7 9 12 12 11 11 14 14 14 13 13 13 13 13 12 12 12 11 11 11 11 11 10 10 10 10 10 10 10 9 8
3 2 1 3 7 9 9 9 9 8 8 10 11 11 10 9 9 9 7 9 12 12 11 11 14 14 13 13 13 13 13 12 12 11 10 10 11 11 11 10 10 10 9 9 9 9 9 8 8
2 1 2 5 8 8 8 8 9 10 10 11 11 11 8 7 7 7 8 8 11 11 10 11 13 14 13 13 12 12 11 10 10 9 8 8 9 9 10 10 9 9 9 8 8 8 8 7 7
2 1 2 7 7 7 7 8 9 9 10 9 9 9 8 7 6 7 8 8 9 9 10 9 10 11 12 12 11 10 9 8 7 6 6 6 6 7 8 9 8 8 8 7 7 6 6 5 5
1 0 4 5 7 8 8 8 9 9 9 7 7 8 8 7 6 8 8 7 7 7 7 7 9 9 8 8 9 8 7 6 5 4 4 3 4 5 7 8 7 6 6 5 4 3 3 2 2
1 1 3 5 6 8 9 8 8 9 9 10 10 12 12 10 8 7 7 6 5 6 5 5 6 7 7 7 8 6 6 5 4 3 4 3 2 3 4 7 5 4 3 2 1 0 1 1 1
2 3 5 6 7 9 8 8 7 9 10 12 13 14 13 9 8 8 8 7 6 5 4 5 5 5 5 5 5 2 3 3 3 2 2 1 2 3 5 5 4 3 2 1 2 3 3 3 1
4 6 6 8 9 8 7 7 6 8 8 11 13 13 12 10 7 7 8 7 6 5 4 5 5 5 4 3 3 1 1 1 1 2 4 3 3 2 2 2 2 2 3 1 2 2 1 1 1
7 7 7 8 7 7 7 7 8 8 9 11 12 12 11 10 8 7 7 7 7 6 4 4 4 5 5 4 2 2 2 2 3 4 4 3 2 2 2 2 2 1 1 1 2 1 2 3 3
7 7 8 7 7 7 8 9 9 9 10 12 13 11 10 9 8 7 6 7 7 7 5 4 3 4 5 3 2 4 3 3 3 3 2 4 2 3 3 2 2 3 2 2 2 3 4 4 5
8 8 7 7 7 7 9 8 8 8 11 13 11 9 9 7 8 7 6 6 7 6 6 4 4 4 5 4 4 3 2 3 3 3 3 4 2 3 3 2 2 2 2 3 2 3 3 3 3
8 8 6 5 6 7 7 6 8 9 11 12 11 9 8 7 6 6 6 6 6 7 6 5 4 4 6 5 3 2 2 3 3 3 4 4 4 4 3 3 2 2 3 4 4 4 3 3 3
7 5 5 6 6 5 4 5 8 8 9 10 10 9 7 6 6 6 6 5 6 6 6 6 5 5 6 5 3 3 3 3 2 3 3 4 5 5 4 3 2 3 3 3 3 3 3 3 3
5 5 7 6 5 4 4 6 8 8 9 9 10 9 8 6 6 5 6 5 5 6 7 6 5 6 5 3 3 4 3 3 3 3 4 4 5 5 4 3 3 4 3 3 3 3 3 3 3
5 6 6 6 6 5 5 6 9 9 8 9 10 10 9 8 7 6 5 5 5 6 7 6 6 6 4 2 3 3 3 3 3 3 4 5 4 5 4 3 4 4 3 3 3 3 3 2 2
2 2 3 5 6 5 5 7 9 9 8 8 10 10 10 9 8 7 6 6 6 6 6 6 6 5 3 2 2 2 2 2 3 3 4 4 5 5 4 3 4 3 3 3 4 3 3 2 2
3 4 3 5 6 4 5 6 8 10 10 8 9 10 10 9 9 9 7 6 6 6 6 6 5 5 4 2 2 2 2 2 3 3 3 4 4 4 4 4 3 3 3 4 3 3 2 2 2
5 4 4 4 4 5 4 5 8 10 9 9 8 8 10 10 11 10 8 7 6 6 5 5 5 6 4 3 3 3 2 1 2 2 2 3 4 4 4 4 3 3 3 2 2 3 3 2 2
4 3 3 4 4 4 6 3 7 11 10 10 9 8 9 9 10 10 8 8 7 6 6 6 6 6 5 4 3 3 2 2 2 2 1 2 3 3 4 4 4 3 3 3 3 3 2 2 2
2 3 4 5 5 5 6 4 5 11 12 12 11 10 10 10 10 11 9 8 8 7 6 5 6 5 5 5 4 2 2 2 2 2 2 2 3 3 3 3 3 4 3 3 4 4 4 3 2
3 4 5 6 5 6 7 5 3 9 14 15 13 11 10 10 10 11 10 9 7 7 6 5 5 5 4 4 5 3 3 2 2 2 2 2 2 2 3 2 3 3 3 4 4 3 4 4 4
5 3 2 4 4 5 6 4 3 5 8 12 14 13 12 11 10 9 11 10 8 8 7 6 6 5 4 4 4 4 4 3 3 2 2 2 2 2 2 2 3 3 3 3 3 3 3 3 3
7 6 3 2 2 2 4 3 3 6 5 7 10 11 11 11 9 9 10 10 9 9 8 7 7 6 5 4 3 4 4 2 2 2 2 2 2 2 2 2 3 3 3 3 3 3 3 3 4
6 6 6 5 5 2 2 4 6 6 6 6 8 10 9 10 10 10 10 10 10 9 9 8 7 6 5 4 3 3 4 3 2 2 3 2 2 3 3 3 3 3 3 3 3 3 3 3 4
7 5 3 3 3 3 2 3 3 6 5 6 8 9 9 9 10 10 10 10 10 9 8 8 8 7 6 6 4 3 3 2 2 2 3 3 3 3 3 2 2 3 2 2 3 2 2 3 2
8 7 6 4 3 2 1 1 3 6 5 4 6 8 8 9 9 9 9 9 9 9 9 8 8 7 7 6 5 5 3 3 3 2 3 3 3 2 2 2 2 3 2 2 2 2 2 3 2
7 7 7 4 3 2 1 1 2 4 4 4 5 6 7 8 8 9 9 9 9 9 9 8 8 7 7 6 6 6 5 4 3 3 3 3 3 3 3 2 2 3 3 2 2 2 2 2 3
Wind_Direction
266 246 237 242 247 200 73 69 68 64 66 59 57 66 67 56 61 89 112 91 97 97 95 84 78 77 76 76 76 77 77 77 76 73 71 69 68 66 64 63 61 59 58 56 55 55 57 58 56
275 267 252 232 246 122 85 84 76 67 76 79 73 71 70 67 73 93 99 97 95 94 92 87 84 81 78 76 77 76 76 77 76 74 72 69 67 66 64 64 61 59 57 57 55 55 55 54 51
263 261 260 252 4 76 93 90 91 84 71 73 76 64 56 66 72 91 112 110 98 94 92 92 88 85 81 77 77 77 77 78 77 75 73 71 68 65 65 64 61 59 59 59 56 55 52 50 48
258 245 243 74 67 73 98 104 106 100 79 70 80 74 69 60 81 107 114 107 103 100 98 98 94 89 86 83 81 81 77 75 77 75 72 70 68 65 63 62 60 59 58 59 58 55 52 49 46
239 264 141 95 80 80 89 100 103 93 84 75 78 88 81 69 84 101 105 102 103 104 105 106 101 95 91 88 85 80 78 74 72 75 74 72 69 67 64 61 59 58 58 59 57 55 52 49 45
257 232 134 104 93 83 82 87 88 92 94 92 91 93 89 95 99 103 100 97 105 109 110 110 109 106 100 93 87 83 80 77 74 75 80 79 76 73 69 64 61 58 58 59 57 58 55 50 42
273 290 114 109 105 97 86 87 85 92 89 87 97 95 106 104 111 114 107 102 104 113 121 126 126 116 108 101 95 92 90 88 87 87 89 90 89 86 80 70 64 64 62 60 57 59 60 52 40
309 29 119 108 109 98 86 83 88 87 86 93 99 107 120 123 120 110 103 100 105 111 120 127 128 131 128 119 113 113 113 112 119 132 136 137 125 111 101 83 72 68 64 59 57 59 66 57 24
280 127 103 98 103 104 106 100 96 93 92 83 80 101 120 130 125 117 107 98 96 100 107 109 114 121 127 130 132 145 149 155 164 181 198 191 174 149 117 90 96 90 81 65 31 291 238 222 254
140 89 88 92 102 113 115 111 113 110 102 98 96 105 119 126 129 125 122 118 108 96 92 94 98 104 102 100 126 154 144 156 181 160 121 120 93 87 97 119 130 147 153 212 258 262 264 242 224
100 93 95 95 101 110 110 110 103 107 106 113 121 126 131 133 133 130 124 115 106 97 84 92 103 97 97 91 95 87 86 95 47 57 82 48 47 98 110 139 168 196 180 232 241 248 259 214 102
105 102 104 105 106 109 106 100 91 88 103 117 123 132 138 139 136 131 118 116 111 101 87 77 80 97 94 86 88 73 46 52 41 20 56 62 27 32 52 56 27 21 40 12 4 -0 21 28 50
112 110 107 110 110 104 102 98 96 99 110 117 126 132 138 136 133 123 122 126 120 120 111 84 73 75 88 89 72 76 53 42 54 7 34 71 49 42 46 54 31 21 17 19 7 26 34 29 35
109 108 114 121 118 117 116 115 111 116 123 125 130 131 131 128 130 127 130 125 127 126 121 108 91 86 86 79 72 69 78 68 47 359 19 62 63 58 48 54 34 22 17 16 18 38 38 46 45
125 128 127 137 141 130 124 116 122 133 137 136 137 133 128 127 124 127 125 123 124 121 117 109 101 87 84 71 66 78 68 71 55 11 13 52 54 54 44 36 36 24 24 24 24 28 30 46 48
153 154 148 154 162 159 156 128 136 146 148 143 141 139 140 140 135 123 122 123 119 118 116 104 93 85 82 76 49 63 58 59 54 29 9 35 55 60 41 26 34 38 25 26 34 29 24 34 35
186 179 165 162 177 170 158 137 147 160 156 151 147 149 155 151 141 131 128 121 119 124 119 118 106 90 82 85 75 59 63 56 55 39 22 23 39 55 51 21 31 46 31 16 26 43 35 30 27
177 177 169 167 164 165 160 152 158 169 171 164 157 158 161 157 157 144 133 128 130 130 123 122 112 103 105 85 73 59 47 52 54 52 42 26 29 43 39 31 40 42 39 19 29 34 34 28 15
181 195 176 158 156 174 181 169 165 170 181 176 168 166 166 161 155 142 147 144 143 131 126 124 119 112 100 77 80 81 67 63 51 44 45 42 38 30 35 30 43 44 44 23 32 35 19 15 32
191 206 189 153 162 189 190 181 173 176 184 188 179 173 167 162 155 152 157 147 142 134 133 130 125 119 107 98 96 93 79 78 79 53 37 37 49 28 31 35 43 51 52 32 34 43 24 349 21
198 214 195 163 182 218 201 196 183 181 184 186 188 177 167 168 163 159 159 151 147 140 140 139 135 126 125 117 92 81 63 48 79 80 51 32 52 49 29 28 34 36 54 40 25 45 48 1 351
212 216 211 192 204 222 213 214 195 179 184 189 190 181 171 172 166 158 159 155 149 145 145 146 140 135 132 123 124 136 137 113 96 107 122 92 65 62 42 29 28 38 51 40 18 42 23 30 5
224 211 223 224 235 250 228 235 202 176 185 192 192 187 178 175 168 161 162 159 155 150 148 150 140 136 138 143 136 136 115 117 117 116 109 94 79 69 60 42 30 41 48 48 34 33 26 31 26
209 222 231 239 243 252 236 223 197 187 190 187 186 186 180 175 170 164 161 155 153 148 148 150 142 143 150 151 147 148 124 114 113 112 119 119 108 75 67 53 44 48 43 45 33 35 38 31 25
208 219 239 225 219 232 210 204 177 173 177 179 180 182 180 174 170 165 161 157 157 154 156 157 151 156 159 164 159 155 150 151 147 143 136 124 107 88 70 57 55 55 48 50 38 34 32 36 34
212 216 233 256 253 256 195 182 123 133 141 159 166 169 173 170 167 165 162 159 160 161 164 168 165 163 162 171 170 159 150 149 146 149 129 112 110 108 97 82 68 58 49 54 44 35 25 37 33
226 227 256 285 295 274 215 147 127 118 132 148 157 160 168 169 167 165 161 160 162 165 171 177 168 163 170 176 176 159 144 149 157 154 115 107 109 114 94 86 83 70 52 47 51 47 32 38 34
249 261 264 265 286 270 232 185 145 133 145 159 160 162 168 168 168 164 164 163 165 167 171 176 168 171 177 176 174 153 144 150 136 117 118 117 108 102 115 107 101 96 79 61 56 48 34 52 47
215 228 242 258 269 288 289 47 95 129 140 153 154 156 166 170 168 164 164 165 165 165 169 173 171 173 176 172 164 152 160 151 135 130 126 122 121 128 136 133 124 115 104 90 75 63 44 44 37
239 237 237 244 264 269 275 120 93 106 127 142 148 151 159 163 165 161 162 161 162 166 171 174 174 173 171 168 164 160 158 151 153 152 150 149 151 150 135 118 98 92 85 78 76 62 60 53 44